Weather History for Martha's Vineyard, MA

Change the Weather History Date:

Sunday, February 3, 2013

  Actual Average Record
Temperature  
Mean Temperature 26 °F -  
Max Temperature 34 °F 39 °F 55 °F (1999)
Min Temperature 19 °F 24 °F -9 °F (1961)
Degree Days  
Heating Degree Days 38    
Moisture  
Dew Point 22 °F    
Average Humidity 81    
Maximum Humidity 93    
Minimum Humidity 59    
Precipitation  
Precipitation 0.01 in - - ()
Sea Level Pressure  
Sea Level Pressure 29.88 in    
Wind  
Wind Speed 9 mph (NNW)    
Max Wind Speed 16 mph    
Max Gust Speed 23 mph    
Visibility 7 miles    
Events Snow    
Averages and records for this station are not official NWS values.
T = Trace of Precipitation, MM = Missing Value Source: NWS Daily Summary

Daily Weather History Graph

Daily Weather History Graph

Search for Another Location

Airport:

Trip Planner

Search our weather history database for the weather conditions in past years. The results will help you decide how hot, cold, wet, or windy it might be!

Date:

Astronomy

Feb. 03, 2013 Rise Set
Actual Time 6:51 AM EST 5:01 PM EST
Civil Twilight 6:22 AM EST 5:30 PM EST
Nautical Twilight 5:49 AM EST 6:03 PM EST
Astronomical Twilight 5:17 AM EST 6:36 PM EST
Moon 12:15 AM EST (2/3) 10:36 AM EST (2/3)
Length of Visible Light 11h 08m
Length of Day
10h 09m
Waning Gibbous, 49% of the Moon is Illuminated
Feb 3
Waning Gibbous
Feb 10
New
Feb 17
First Quarter
Feb 25
Full
Mar 4
Last Quarter

Hourly Weather History & Observations

Time (EST) Temp. Windchill Dew Point Humidity Pressure Visibility Wind Dir Wind Speed Gust Speed Precip Events Conditions
12:00 AM 30.2 °F 23.4 °F 28.4 °F 93% 30.05 in 1.5 mi West 6.9 mph - 0.01 in Snow Light Snow
12:10 AM 28.4 °F 19.1 °F 26.6 °F 93% 30.05 in 1.2 mi NW 10.4 mph - 0.01 in Snow Light Snow
12:35 AM 28.4 °F 18.0 °F 24.8 °F 86% 30.03 in 2.0 mi NW 12.7 mph 20.7 mph 0.01 in Snow Light Snow
12:42 AM 28.4 °F 19.1 °F 24.8 °F 86% 30.03 in 1.8 mi NW 10.4 mph - 0.01 in Snow Light Snow
12:53 AM 27.0 °F 16.1 °F 25.0 °F 92% 30.04 in 1.5 mi NW 12.7 mph 19.6 mph 0.01 in Snow Light Snow
1:02 AM 26.6 °F 16.8 °F 24.8 °F 93% 30.03 in 1.8 mi NW 10.4 mph 19.6 mph 0.00 in Snow Light Snow
1:09 AM 26.6 °F 18.2 °F 24.8 °F 93% 30.02 in 2.0 mi NW 8.1 mph - 0.00 in Snow Light Snow
1:28 AM 26.6 °F 16.2 °F 24.8 °F 93% 30.02 in 3.0 mi NNW 11.5 mph - 0.00 in Snow Light Snow
1:37 AM 26.6 °F 17.5 °F 23.0 °F 86% 30.02 in 2.5 mi NNW 9.2 mph - 0.00 in Snow Light Snow
1:53 AM 26.1 °F 17.6 °F 23.0 °F 88% 30.02 in 3.0 mi NW 8.1 mph - 0.00 in Snow Light Snow
2:05 AM 26.6 °F 18.2 °F 24.8 °F 93% 30.01 in 2.5 mi NNW 8.1 mph - 0.00 in Snow Light Snow
2:53 AM 25.0 °F 19.3 °F 23.0 °F 92% 30.01 in 3.0 mi North 4.6 mph - 0.00 in Snow Light Snow
3:53 AM 25.0 °F 19.3 °F 19.9 °F 81% 29.99 in 10.0 mi North 4.6 mph - 0.00 in   Overcast
4:53 AM 24.1 °F - 19.0 °F 81% 29.98 in 10.0 mi Calm Calm - N/A   Mostly Cloudy
5:53 AM 21.9 °F - 17.1 °F 82% 29.95 in 10.0 mi Calm Calm - N/A   Partly Cloudy
6:53 AM 19.0 °F - 16.0 °F 88% 29.95 in 10.0 mi Calm Calm - N/A   Clear
7:53 AM 19.9 °F - 18.0 °F 92% 29.97 in 10.0 mi Calm Calm - N/A   Overcast
8:53 AM 26.1 °F 19.4 °F 19.9 °F 78% 29.94 in 10.0 mi NNW 5.8 mph - N/A   Overcast
9:53 AM 27.0 °F 18.7 °F 21.9 °F 81% 29.91 in 10.0 mi NNW 8.1 mph - N/A   Overcast
10:53 AM 30.0 °F 22.4 °F 24.1 °F 79% 29.87 in 10.0 mi North 8.1 mph - N/A   Partly Cloudy
11:53 AM 32.0 °F 26.4 °F 25.0 °F 75% 29.83 in 10.0 mi NNE 5.8 mph - N/A   Clear
12:53 PM 33.1 °F 27.7 °F 24.1 °F 70% 29.81 in 10.0 mi North 5.8 mph - N/A   Clear
1:53 PM 34.0 °F 29.8 °F 21.0 °F 59% 29.77 in 10.0 mi North 4.6 mph - N/A   Clear
2:53 PM 33.1 °F 26.1 °F 21.0 °F 61% 29.75 in 10.0 mi NNW 8.1 mph - N/A   Scattered Clouds
3:24 PM 33.8 °F 25.8 °F 21.2 °F 60% 29.74 in 10.0 mi North 10.4 mph - N/A   Mostly Cloudy
3:49 PM 32.0 °F 21.6 °F 21.2 °F 64% 29.72 in 10.0 mi North 15.0 mph - N/A   Scattered Clouds
3:53 PM 32.0 °F 22.1 °F 21.9 °F 66% 29.72 in 10.0 mi North 13.8 mph - N/A   Partly Cloudy
4:53 PM 28.9 °F 20.4 °F 23.0 °F 78% 29.71 in 10.0 mi North 9.2 mph - N/A   Clear
5:53 PM 28.9 °F 19.8 °F 23.0 °F 78% 29.73 in 10.0 mi NNW 10.4 mph - N/A   Mostly Cloudy
6:10 PM 28.4 °F 18.5 °F 23.0 °F 80% 29.72 in 10.0 mi NNW 11.5 mph - N/A   Mostly Cloudy
6:53 PM 28.9 °F 19.2 °F 21.9 °F 75% 29.74 in 10.0 mi NW 11.5 mph - N/A   Overcast
7:53 PM 28.0 °F 16.1 °F 21.9 °F 78% 29.72 in 10.0 mi NNW 16.1 mph 23.0 mph N/A   Overcast
8:53 PM 27.0 °F 14.7 °F 21.0 °F 78% 29.70 in 10.0 mi NNW 16.1 mph 21.9 mph N/A   Overcast
9:53 PM 27.0 °F 15.2 °F 21.0 °F 78% 29.70 in 10.0 mi NW 15.0 mph - N/A   Overcast
10:53 PM 27.0 °F 15.6 °F 21.0 °F 78% 29.71 in 10.0 mi NW 13.8 mph - N/A   Overcast
11:53 PM 26.1 °F 15.0 °F 23.0 °F 88% 29.72 in 2.0 mi NW 12.7 mph - 0.00 in Snow Light Snow